This demonstration page uses our WeatherBlox Daily Observations layout. Learn more.

Left ArrowRight Arrow

Hourly Observations for January 6, 2020

Temp ( °F °C ) Dew Point ( °F °C ) Humidity (%) Winds ( mph kmh ) Pressure ( in mb ) Visibility ( mi km ) Precip ( " mm )
12:53 am 00:53 Clear 35 1.7 31 -0.6 85 85 Calm 30.21 1023 10 16 0.00 0.00
1:53 am 01:53 Clear 36 2.2 31 -0.6 82 82 SW 5 7 30.21 1023 10 16 0.00 0.00
2:53 am 02:53 Clear 35 1.7 31 -0.6 85 85 Calm 30.20 1023 10 16 0.00 0.00
3:53 am 03:53 Clear 34 1.1 30 -1.1 85 85 Calm 30.20 1023 10 16 0.00 0.00
4:53 am 04:53 Clear 33 0.6 30 -1.1 89 89 Calm 30.19 1022 10 16 0.00 0.00
5:53 am 05:53 Clear 32 0 29 -1.7 88 88 Calm 30.19 1022 10 16 0.00 0.00
6:53 am 06:53 Clear 32 0 30 -1.1 92 92 Calm 30.20 1023 10 16 0.00 0.00
7:53 am 07:53 Sunny 32 0 30 -1.1 92 92 Calm 30.22 1023 10 16 0.00 0.00
8:53 am 08:53 Sunny 37 2.8 32 0 82 82 Calm 30.24 1024 10 16 0.00 0.00
9:53 am 09:53 Sunny 44 6.7 35 1.7 71 71 Calm 30.24 1024 10 16 0.00 0.00
10:53 am 10:53 Sunny 51 10.6 37 2.8 59 59 VRB 5 7 30.24 1024 10 16 0.00 0.00
11:53 am 11:53 Sunny 54 12.2 36 2.2 51 51 Calm 30.21 1023 10 16 0.00 0.00
12:53 pm 12:53 Sunny 57 13.9 36 2.2 45 45 WSW 7 11 30.17 1022 10 16 0.00 0.00
1:53 pm 13:53 Sunny 59 15 37 2.8 44 44 VRB 5 7 30.13 1020 10 16 0.00 0.00
2:53 pm 14:53 Sunny 60 15.6 37 2.8 42 42 VRB 5 7 30.11 1020 10 16 0.00 0.00
3:53 pm 15:53 Sunny 62 16.7 38 3.3 41 41 SSW 5 7 30.11 1020 10 16 0.00 0.00
4:53 pm 16:53 Sunny 61 16.1 38 3.3 43 43 SSW 3 6 30.10 1019 10 16 0.00 0.00
5:53 pm 17:53 Cloudy 60 15.6 40 4.4 47 47 Calm 30.11 1020 10 16 0.00 0.00
6:53 pm 18:53 Clear 52 11.1 41 5 66 66 Calm 30.11 1020 10 16 0.00 0.00
7:53 pm 19:53 Cloudy 52 11.1 42 5.6 69 69 Calm 30.11 1020 10 16 0.00 0.00
8:53 pm 20:53 Mostly Cloudy 50 10 42 5.6 74 74 Calm 30.11 1020 10 16 0.00 0.00
9:53 pm 21:53 Clear 47 8.3 41 5 80 80 Calm 30.11 1020 10 16 0.00 0.00
10:53 pm 22:53 Clear 45 7.2 41 5 86 86 SW 3 6 30.10 1019 10 16 0.00 0.00
11:53 pm 23:53 Clear 47 8.3 42 5.6 83 83 S 3 6 30.09 1019 10 16 0.00 0.00

Powered by AerisWeather